Total_Precipitation_Accumulation
0.07 0.07 0.08 0.08 0.09 0.12 0.16 0.23 0.27 0.20 0.12 0.07 0.08 0.11 0.19 0.21 0.23 0.27 0.31 0.21 0.20 0.26 0.26 0.29 0.33 0.43 0.44 0.36 0.28 0.21 0.18 0.17 0.15 0.15 0.18 0.20 0.23 0.25
0.08 0.07 0.07 0.08 0.09 0.10 0.12 0.16 0.23 0.28 0.24 0.11 0.08 0.13 0.18 0.19 0.23 0.29 0.29 0.28 0.34 0.57 0.68 0.60 0.54 0.66 0.72 0.58 0.42 0.31 0.26 0.23 0.22 0.23 0.23 0.25 0.27 0.29
0.06 0.07 0.07 0.08 0.10 0.11 0.13 0.17 0.21 0.29 0.32 0.18 0.12 0.15 0.20 0.22 0.27 0.31 0.33 0.35 0.46 0.88 1.15 1.34 1.08 0.96 0.99 0.84 0.64 0.45 0.35 0.31 0.30 0.32 0.33 0.35 0.36 0.36
0.08 0.10 0.10 0.10 0.11 0.13 0.17 0.20 0.23 0.30 0.40 0.33 0.24 0.28 0.31 0.33 0.42 0.44 0.42 0.38 0.42 0.87 1.26 1.60 1.56 1.33 1.33 1.15 0.93 0.67 0.50 0.42 0.39 0.39 0.39 0.40 0.41 0.43
0.10 0.12 0.12 0.15 0.17 0.20 0.26 0.30 0.31 0.34 0.43 0.43 0.35 0.39 0.46 0.53 0.61 0.56 0.46 0.38 0.34 0.67 1.15 1.47 1.64 1.71 1.81 1.68 1.36 1.00 0.71 0.54 0.47 0.45 0.45 0.43 0.42 0.39
0.13 0.17 0.20 0.25 0.28 0.31 0.32 0.31 0.33 0.36 0.40 0.45 0.44 0.50 0.57 0.62 0.59 0.57 0.47 0.37 0.35 0.48 0.90 1.41 1.75 1.85 2.05 2.19 1.91 1.39 0.97 0.69 0.53 0.46 0.40 0.36 0.35 0.33
0.14 0.16 0.21 0.28 0.33 0.30 0.27 0.26 0.31 0.39 0.41 0.48 0.52 0.52 0.52 0.56 0.53 0.42 0.35 0.31 0.30 0.36 0.54 1.01 1.68 1.99 2.03 2.15 2.12 1.65 1.20 0.87 0.64 0.51 0.43 0.36 0.33 0.33
0.17 0.16 0.15 0.17 0.17 0.17 0.23 0.25 0.30 0.42 0.60 0.68 0.58 0.47 0.38 0.35 0.33 0.30 0.31 0.28 0.26 0.22 0.27 0.62 1.23 1.86 2.09 2.15 2.14 1.65 1.19 0.89 0.72 0.60 0.53 0.45 0.40 0.37
0.18 0.15 0.10 0.08 0.08 0.10 0.15 0.21 0.30 0.44 0.58 0.74 0.68 0.42 0.37 0.30 0.28 0.29 0.31 0.32 0.29 0.18 0.21 0.47 0.93 1.55 1.88 2.04 1.95 1.44 1.06 0.84 0.73 0.64 0.57 0.52 0.46 0.43
0.14 0.12 0.10 0.06 0.09 0.16 0.18 0.20 0.26 0.36 0.45 0.51 0.67 0.50 0.37 0.34 0.32 0.29 0.30 0.32 0.28 0.15 0.17 0.39 0.80 1.27 1.45 1.51 1.54 1.24 0.97 0.81 0.71 0.63 0.57 0.54 0.50 0.49
0.09 0.08 0.06 0.05 0.13 0.27 0.32 0.36 0.43 0.54 0.61 0.73 0.86 0.83 0.70 0.60 0.47 0.37 0.33 0.25 0.19 0.15 0.17 0.33 0.60 0.85 1.02 1.10 1.11 1.04 0.88 0.77 0.68 0.61 0.56 0.52 0.47 0.49
0.04 0.05 0.07 0.10 0.19 0.33 0.45 0.51 0.58 0.72 0.66 0.69 0.84 0.90 0.76 0.75 0.77 0.58 0.38 0.20 0.14 0.14 0.17 0.26 0.40 0.50 0.73 0.87 0.81 0.71 0.68 0.71 0.67 0.61 0.57 0.49 0.38 0.35
0.03 0.05 0.11 0.17 0.23 0.40 0.56 0.60 0.75 0.85 0.77 0.63 0.59 0.61 0.66 0.67 0.65 0.61 0.42 0.22 0.11 0.09 0.11 0.18 0.30 0.33 0.40 0.58 0.67 0.62 0.53 0.50 0.49 0.56 0.62 0.55 0.43 0.35
0.07 0.12 0.20 0.22 0.25 0.43 0.59 0.78 0.97 1.03 0.80 0.61 0.45 0.39 0.39 0.43 0.46 0.42 0.31 0.20 0.12 0.09 0.09 0.13 0.23 0.30 0.26 0.28 0.46 0.55 0.51 0.47 0.40 0.41 0.47 0.50 0.48 0.48
0.11 0.19 0.23 0.22 0.32 0.53 0.80 1.00 1.08 0.99 0.82 0.59 0.41 0.35 0.31 0.29 0.31 0.33 0.30 0.21 0.15 0.11 0.10 0.11 0.17 0.25 0.23 0.20 0.29 0.37 0.43 0.48 0.42 0.40 0.39 0.39 0.40 0.42
0.09 0.16 0.21 0.26 0.40 0.65 0.87 1.00 1.00 0.92 0.76 0.55 0.44 0.41 0.35 0.31 0.29 0.25 0.22 0.16 0.13 0.13 0.11 0.10 0.14 0.19 0.23 0.22 0.23 0.28 0.28 0.40 0.43 0.37 0.34 0.33 0.31 0.30
0.08 0.10 0.15 0.25 0.42 0.62 0.79 0.87 0.86 0.80 0.69 0.47 0.37 0.39 0.41 0.35 0.30 0.24 0.17 0.11 0.09 0.09 0.10 0.11 0.13 0.16 0.18 0.18 0.19 0.22 0.23 0.26 0.29 0.24 0.19 0.17 0.16 0.15
0.07 0.09 0.15 0.27 0.44 0.63 0.77 0.79 0.73 0.64 0.54 0.40 0.32 0.31 0.31 0.28 0.27 0.21 0.13 0.09 0.08 0.07 0.07 0.07 0.07 0.08 0.09 0.11 0.10 0.10 0.11 0.13 0.14 0.12 0.08 0.07 0.06 0.06
0.08 0.13 0.20 0.29 0.43 0.59 0.69 0.71 0.66 0.56 0.45 0.35 0.29 0.26 0.24 0.22 0.18 0.14 0.10 0.07 0.06 0.05 0.04 0.03 0.02 0.02 0.03 0.05 0.06 0.05 0.05 0.06 0.06 0.06 0.04 0.03 0.03 0.02
0.13 0.21 0.27 0.31 0.38 0.47 0.54 0.61 0.63 0.56 0.45 0.36 0.31 0.27 0.22 0.18 0.14 0.09 0.06 0.04 0.03 0.03 0.03 0.02 0.01 0.01 0.01 0.01 0.02 0.02 0.02 0.03 0.03 0.02 0.02 0.01 0.01 0.01
0.19 0.25 0.30 0.33 0.34 0.35 0.40 0.46 0.50 0.49 0.43 0.36 0.32 0.29 0.23 0.15 0.10 0.06 0.04 0.03 0.03 0.03 0.03 0.02 0.01 0.00 0.00 0.00 0.01 0.01 0.00 0.01 0.01 0.01 0.00 0.00 0.00 0.00
0.20 0.25 0.30 0.33 0.31 0.30 0.30 0.33 0.37 0.38 0.36 0.33 0.30 0.27 0.20 0.12 0.07 0.05 0.04 0.03 0.03 0.02 0.01 0.01 0.00 0.00 0.00 0.00 0.01 0.01 0.01 0.00 0.00 0.00 0.00 0.00 0.00 0.00
0.19 0.21 0.24 0.27 0.27 0.25 0.23 0.24 0.28 0.31 0.32 0.32 0.30 0.25 0.17 0.11 0.08 0.06 0.04 0.03 0.02 0.01 0.01 0.01 0.01 0.00 0.00 0.00 0.00 0.01 0.01 0.01 0.01 0.00 0.00 0.00 0.00 0.00